Time,TemperatureF,DewpointF,PressureIn,WindDirection,WindDirectionDegrees,WindSpeedMPH,WindSpeedGustMPH,Humidity,HourlyPrecipIn,Conditions,Clouds,dailyrainin,SoftwareType,DateUTC
2013-08-29 00:00:00,76.1,72.3,30.06,SSE,158,0.0,0.0,88,0.00,,,0.04,WUHU216HW,2013-08-29 05:00:00,
2013-08-29 00:03:00,76.1,72.3,30.06,SSE,158,0.0,0.0,88,0.00,,,0.00,WUHU216HW,2013-08-29 05:03:00,
2013-08-29 00:06:00,76.1,72.3,30.06,ESE,113,0.0,0.0,88,0.00,,,0.00,WUHU216HW,2013-08-29 05:06:00,
2013-08-29 00:09:00,76.1,72.3,30.06,South,180,0.0,0.0,88,0.00,,,0.00,WUHU216HW,2013-08-29 05:09:00,
2013-08-29 00:11:00,76.1,72.3,30.06,South,180,0.0,0.0,88,0.00,,,0.00,WUHU216HW,2013-08-29 05:11:00,
2013-08-29 00:14:00,76.1,72.3,30.06,South,180,0.0,0.0,88,0.00,,,0.00,WUHU216HW,2013-08-29 05:14:00,
2013-08-29 00:16:00,76.1,72.3,30.06,South,180,0.0,0.0,88,0.00,,,0.00,WUHU216HW,2013-08-29 05:16:00,
2013-08-29 00:20:00,76.1,72.3,30.06,South,180,0.0,0.0,88,0.00,,,0.00,WUHU216HW,2013-08-29 05:20:00,
2013-08-29 00:21:00,76.1,72.3,30.06,South,180,0.0,0.0,88,0.00,,,0.00,WUHU216HW,2013-08-29 05:21:00,
2013-08-29 00:25:00,76.2,72.5,30.06,SE,135,0.0,0.0,88,0.00,,,0.00,WUHU216HW,2013-08-29 05:25:00,
2013-08-29 00:26:00,76.2,72.5,30.06,SE,135,0.0,0.0,88,0.00,,,0.00,WUHU216HW,2013-08-29 05:26:00,
2013-08-29 00:32:00,76.2,72.5,30.06,SE,135,0.0,0.0,88,0.00,,,0.00,WUHU216HW,2013-08-29 05:32:00,
2013-08-29 00:37:00,76.2,72.8,30.06,SSE,158,0.0,0.0,89,0.00,,,0.00,WUHU216HW,2013-08-29 05:37:00,
2013-08-29 00:41:00,76.2,72.8,30.06,SSE,158,0.0,0.0,89,0.00,,,0.00,WUHU216HW,2013-08-29 05:41:00,
2013-08-29 00:43:00,76.2,72.8,30.06,SSE,158,0.0,0.0,89,0.00,,,0.00,WUHU216HW,2013-08-29 05:43:00,
2013-08-29 00:47:00,76.2,72.8,30.06,SSE,158,0.0,0.0,89,0.00,,,0.00,WUHU216HW,2013-08-29 05:47:00,
2013-08-29 00:48:00,76.2,72.8,30.06,SSE,158,0.0,0.0,89,0.00,,,0.00,WUHU216HW,2013-08-29 05:48:00,
2013-08-29 00:53:00,76.6,73.2,30.06,SSE,158,0.0,0.0,89,0.00,,,0.00,WUHU216HW,2013-08-29 05:53:00,
2013-08-29 00:54:00,76.6,73.2,30.06,SSE,158,0.0,0.0,89,0.00,,,0.00,WUHU216HW,2013-08-29 05:54:00,
2013-08-29 00:59:00,76.8,73.4,30.06,SSE,158,0.0,0.0,89,0.00,,,0.00,WUHU216HW,2013-08-29 05:59:00,
2013-08-29 01:06:00,76.8,73.4,30.06,SSE,158,0.0,0.0,89,0.00,,,0.00,WUHU216HW,2013-08-29 06:06:00,
2013-08-29 01:09:00,76.8,73.4,30.05,SSE,158,0.0,0.0,89,0.00,,,0.00,WUHU216HW,2013-08-29 06:09:00,
2013-08-29 01:12:00,76.8,73.4,30.05,SSE,158,0.0,0.0,89,0.00,,,0.00,WUHU216HW,2013-08-29 06:12:00,
2013-08-29 01:14:00,76.8,73.4,30.05,SSE,158,0.0,0.0,89,0.00,,,0.00,WUHU216HW,2013-08-29 06:14:00,
2013-08-29 01:17:00,76.8,73.4,30.06,South,180,0.0,0.0,89,0.00,,,0.00,WUHU216HW,2013-08-29 06:17:00,
2013-08-29 01:19:00,76.8,73.4,30.06,South,180,0.0,0.0,89,0.00,,,0.00,WUHU216HW,2013-08-29 06:19:00,
2013-08-29 01:23:00,76.8,73.4,30.06,South,180,0.0,0.0,89,0.00,,,0.00,WUHU216HW,2013-08-29 06:23:00,
2013-08-29 01:24:00,76.8,73.4,30.06,South,180,0.0,0.0,89,0.00,,,0.00,WUHU216HW,2013-08-29 06:24:00,
2013-08-29 01:28:00,76.8,73.4,30.05,SSE,158,0.0,0.0,89,0.00,,,0.00,WUHU216HW,2013-08-29 06:28:00,
2013-08-29 01:29:00,76.8,73.4,30.05,SSE,158,0.0,0.0,89,0.00,,,0.00,WUHU216HW,2013-08-29 06:29:00,
2013-08-29 01:35:00,76.6,73.2,30.05,South,180,0.0,0.0,89,0.00,,,0.00,WUHU216HW,2013-08-29 06:35:00,
2013-08-29 01:40:00,76.6,73.2,30.05,SE,135,0.0,0.0,89,0.00,,,0.00,WUHU216HW,2013-08-29 06:40:00,
2013-08-29 01:41:00,76.6,73.2,30.05,SSW,203,0.0,0.0,89,0.00,,,0.00,WUHU216HW,2013-08-29 06:41:00,
2013-08-29 01:45:00,76.6,73.2,30.05,South,180,0.0,0.0,89,0.00,,,0.00,WUHU216HW,2013-08-29 06:45:00,
2013-08-29 01:46:00,76.6,73.2,30.05,SSE,158,0.0,0.0,89,0.00,,,0.00,WUHU216HW,2013-08-29 06:46:00,
2013-08-29 01:50:00,76.6,73.2,30.05,SSE,158,0.0,0.0,89,0.00,,,0.00,WUHU216HW,2013-08-29 06:50:00,
2013-08-29 01:52:00,76.6,73.2,30.05,SSE,158,0.0,0.0,89,0.00,,,0.00,WUHU216HW,2013-08-29 06:52:00,
2013-08-29 01:56:00,76.6,73.2,30.05,SSE,158,0.0,0.0,89,0.00,,,0.00,WUHU216HW,2013-08-29 06:56:00,
2013-08-29 02:02:00,76.6,73.2,30.05,SSE,158,0.0,0.0,89,0.00,,,0.00,WUHU216HW,2013-08-29 07:02:00,
2013-08-29 02:08:00,76.6,73.2,30.05,SSE,158,0.0,0.0,89,0.00,,,0.00,WUHU216HW,2013-08-29 07:08:00,
2013-08-29 02:13:00,76.6,73.2,30.05,SE,135,0.0,0.0,89,0.00,,,0.00,WUHU216HW,2013-08-29 07:13:00,
2013-08-29 02:18:00,76.6,73.2,30.05,SSE,158,0.0,0.0,89,0.00,,,0.00,WUHU216HW,2013-08-29 07:18:00,
2013-08-29 02:19:00,76.6,73.2,30.05,SSE,158,0.0,0.0,89,0.00,,,0.00,WUHU216HW,2013-08-29 07:19:00,
2013-08-29 02:23:00,76.6,73.2,30.05,SSE,158,0.0,0.0,89,0.00,,,0.00,WUHU216HW,2013-08-29 07:23:00,
2013-08-29 02:24:00,76.6,73.2,30.04,SSE,158,0.0,0.0,89,0.00,,,0.00,WUHU216HW,2013-08-29 07:24:00,
2013-08-29 02:28:00,76.6,73.2,30.04,SE,135,0.0,0.0,89,0.00,,,0.00,WUHU216HW,2013-08-29 07:28:00,
2013-08-29 02:30:00,76.6,73.2,30.04,SSE,158,0.0,0.0,89,0.00,,,0.00,WUHU216HW,2013-08-29 07:30:00,
2013-08-29 02:34:00,76.6,73.2,30.04,SSE,158,0.0,0.0,89,0.00,,,0.00,WUHU216HW,2013-08-29 07:34:00,
2013-08-29 02:35:00,76.6,73.2,30.03,SE,135,0.0,0.0,89,0.00,,,0.00,WUHU216HW,2013-08-29 07:35:00,
2013-08-29 02:39:00,76.6,73.2,30.04,SSE,158,0.0,0.0,89,0.00,,,0.00,WUHU216HW,2013-08-29 07:39:00,
2013-08-29 02:42:00,76.4,72.6,30.04,South,180,0.0,0.0,88,0.00,,,0.00,WUHU216HW,2013-08-29 07:42:00,
2013-08-29 02:44:00,76.4,72.6,30.03,South,180,0.0,0.0,88,0.00,,,0.00,WUHU216HW,2013-08-29 07:44:00,
2013-08-29 02:47:00,76.4,72.6,30.03,SSE,158,0.0,0.0,88,0.00,,,0.00,WUHU216HW,2013-08-29 07:47:00,
2013-08-29 02:49:00,76.2,72.5,30.03,SSE,158,0.0,0.0,88,0.00,,,0.00,WUHU216HW,2013-08-29 07:49:00,
2013-08-29 02:53:00,76.2,72.5,30.03,East,90,0.0,0.0,88,0.00,,,0.00,WUHU216HW,2013-08-29 07:53:00,
2013-08-29 02:54:00,76.2,72.5,30.03,East,90,0.0,0.0,88,0.00,,,0.00,WUHU216HW,2013-08-29 07:54:00,
2013-08-29 02:58:00,76.1,72.3,30.03,South,180,0.0,0.0,88,0.00,,,0.00,WUHU216HW,2013-08-29 07:58:00,
2013-08-29 02:59:00,76.1,72.3,30.03,South,180,0.0,0.0,88,0.00,,,0.00,WUHU216HW,2013-08-29 07:59:00,
2013-08-29 03:04:00,76.1,72.3,30.03,SE,135,0.0,0.0,88,0.00,,,0.00,WUHU216HW,2013-08-29 08:04:00,
2013-08-29 03:09:00,75.9,72.1,30.03,South,180,0.0,0.0,88,0.00,,,0.00,WUHU216HW,2013-08-29 08:09:00,
2013-08-29 03:10:00,75.9,72.1,30.03,South,180,0.0,0.0,88,0.00,,,0.00,WUHU216HW,2013-08-29 08:10:00,
2013-08-29 03:15:00,75.7,72.3,30.03,South,180,0.0,0.0,89,0.00,,,0.00,WUHU216HW,2013-08-29 08:15:00,
2013-08-29 03:20:00,75.7,72.3,30.02,SSE,158,0.0,0.0,89,0.00,,,0.00,WUHU216HW,2013-08-29 08:20:00,
2013-08-29 03:25:00,75.7,72.3,30.02,SSE,158,0.0,0.0,89,0.00,,,0.00,WUHU216HW,2013-08-29 08:25:00,
2013-08-29 03:26:00,75.7,72.3,30.02,SSE,158,0.0,0.0,89,0.00,,,0.00,WUHU216HW,2013-08-29 08:26:00,
2013-08-29 03:31:00,75.7,72.3,30.02,SSE,158,0.0,0.0,89,0.00,,,0.00,WUHU216HW,2013-08-29 08:31:00,
2013-08-29 03:36:00,75.7,72.3,30.02,SSE,158,0.0,0.0,89,0.00,,,0.00,WUHU216HW,2013-08-29 08:36:00,
2013-08-29 03:37:00,75.7,72.3,30.02,South,180,0.0,0.0,89,0.00,,,0.00,WUHU216HW,2013-08-29 08:37:00,
2013-08-29 03:41:00,75.7,72.3,30.02,SSE,158,0.0,0.0,89,0.00,,,0.00,WUHU216HW,2013-08-29 08:41:00,
2013-08-29 03:42:00,75.7,72.3,30.02,SSE,158,0.0,0.0,89,0.00,,,0.00,WUHU216HW,2013-08-29 08:42:00,
2013-08-29 03:46:00,75.7,72.3,30.02,SE,135,0.0,0.0,89,0.00,,,0.00,WUHU216HW,2013-08-29 08:46:00,
2013-08-29 03:48:00,75.7,72.3,30.02,SSW,203,0.0,0.0,89,0.00,,,0.00,WUHU216HW,2013-08-29 08:48:00,
2013-08-29 03:51:00,75.7,72.3,30.03,SSW,203,0.0,0.0,89,0.00,,,0.00,WUHU216HW,2013-08-29 08:51:00,
2013-08-29 03:54:00,75.5,72.1,30.02,South,180,0.0,0.0,89,0.00,,,0.00,WUHU216HW,2013-08-29 08:54:00,
2013-08-29 03:56:00,75.5,72.1,30.02,SSE,158,0.0,0.0,89,0.00,,,0.00,WUHU216HW,2013-08-29 08:56:00,
2013-08-29 14:23:00,93.0,72.7,29.97,WSW,248,7.7,7.7,52,0.00,,,0.00,WUHU216HW,2013-08-29 19:23:00,
2013-08-29 14:28:00,93.0,73.2,29.98,WSW,248,6.6,7.7,53,0.00,,,0.02,WUHU216HW,2013-08-29 19:28:00,
2013-08-29 14:33:00,93.0,73.2,29.97,West,270,0.0,8.5,53,0.00,,,0.02,WUHU216HW,2013-08-29 19:33:00,
2013-08-29 14:38:00,92.8,73.1,29.98,WSW,248,4.2,8.5,53,0.00,,,0.02,WUHU216HW,2013-08-29 19:38:00,
2013-08-29 14:43:00,92.4,73.3,29.97,West,270,0.0,4.8,54,0.00,,,0.02,WUHU216HW,2013-08-29 19:43:00,
2013-08-29 14:48:00,92.3,73.1,29.97,SSW,203,0.0,4.2,54,0.00,,,0.02,WUHU216HW,2013-08-29 19:48:00,
2013-08-29 14:53:00,92.4,73.8,29.97,West,270,0.0,0.0,55,0.00,,,0.02,WUHU216HW,2013-08-29 19:53:00,
2013-08-29 14:58:00,92.4,73.3,29.98,WSW,248,6.4,6.4,54,0.00,,,0.02,WUHU216HW,2013-08-29 19:58:00,
2013-08-29 15:03:00,92.1,72.9,29.97,West,270,8.8,8.8,54,0.00,,,0.02,WUHU216HW,2013-08-29 20:03:00,
2013-08-29 15:08:00,92.1,72.9,29.97,SW,225,7.2,8.8,54,0.00,,,0.02,WUHU216HW,2013-08-29 20:08:00,
2013-08-29 15:13:00,92.1,73.5,29.97,WSW,248,0.0,7.2,55,0.00,,,0.02,WUHU216HW,2013-08-29 20:13:00,
2013-08-29 15:18:00,92.1,72.9,29.97,WSW,248,3.7,7.2,54,0.00,,,0.02,WUHU216HW,2013-08-29 20:18:00,
2013-08-29 15:23:00,91.9,72.8,29.97,West,270,0.0,11.8,54,0.00,,,0.02,WUHU216HW,2013-08-29 20:23:00,
2013-08-29 15:28:00,91.7,72.6,29.97,West,270,0.0,11.8,54,0.00,,,0.02,WUHU216HW,2013-08-29 20:28:00,
2013-08-29 15:33:00,91.7,72.6,29.97,West,270,11.2,11.2,54,0.00,,,0.02,WUHU216HW,2013-08-29 20:33:00,
2013-08-29 15:38:00,91.2,71.6,29.97,SW,225,3.5,12.0,53,0.00,,,0.02,WUHU216HW,2013-08-29 20:38:00,
2013-08-29 15:43:00,91.0,71.4,29.97,West,270,0.0,16.3,53,0.00,,,0.02,WUHU216HW,2013-08-29 20:43:00,
2013-08-29 15:48:00,90.6,71.6,29.97,West,270,5.9,16.3,54,0.00,,,0.02,WUHU216HW,2013-08-29 20:48:00,
2013-08-29 15:53:00,90.1,71.7,29.98,West,270,0.0,7.7,55,0.00,,,0.02,WUHU216HW,2013-08-29 20:53:00,
2013-08-29 15:58:00,89.9,71.5,29.97,WNW,293,5.3,7.7,55,0.00,,,0.02,WUHU216HW,2013-08-29 20:58:00,
2013-08-29 16:03:00,89.7,71.4,29.98,WNW,293,7.7,7.7,55,0.00,,,0.02,WUHU216HW,2013-08-29 21:03:00,
2013-08-29 16:08:00,89.2,71.4,29.98,WNW,293,5.3,8.0,56,0.00,,,0.02,WUHU216HW,2013-08-29 21:08:00,
2013-08-29 16:13:00,89.2,71.9,29.98,West,270,4.6,8.0,57,0.00,,,0.02,WUHU216HW,2013-08-29 21:13:00,
2013-08-29 16:18:00,89.0,71.2,29.98,West,270,0.0,5.3,56,0.00,,,0.02,WUHU216HW,2013-08-29 21:18:00,
2013-08-29 16:23:00,89.2,71.4,29.97,NW,315,1.6,1.6,56,0.00,,,0.02,WUHU216HW,2013-08-29 21:23:00,
2013-08-29 16:28:00,89.2,71.4,29.97,West,270,0.0,1.6,56,0.00,,,0.02,WUHU216HW,2013-08-29 21:28:00,
2013-08-29 16:33:00,89.4,71.0,29.98,West,270,0.0,0.0,56,0.00,,,0.02,WUHU216HW,2013-08-29 21:33:00,
2013-08-29 16:38:00,89.4,71.0,29.98,NW,315,0.0,6.6,55,0.00,,,0.02,WUHU216HW,2013-08-29 21:38:00,
2013-08-29 16:43:00,89.4,71.6,29.98,NNW,338,0.0,6.6,56,0.00,,,0.02,WUHU216HW,2013-08-29 21:43:00,
2013-08-29 16:48:00,89.7,71.9,29.97,NW,315,1.8,4.0,56,0.00,,,0.02,WUHU216HW,2013-08-29 21:48:00,
2013-08-29 16:53:00,89.7,71.9,29.97,NW,315,0.0,4.0,56,0.00,,,0.02,WUHU216HW,2013-08-29 21:53:00,
2013-08-29 16:58:00,89.7,71.9,29.98,NNW,338,0.0,1.8,56,0.00,,,0.02,WUHU216HW,2013-08-29 21:58:00,
2013-08-29 17:03:00,89.7,71.4,29.98,NNW,338,0.0,6.4,55,0.00,,,0.02,WUHU216HW,2013-08-29 22:03:00,
2013-08-29 17:08:00,89.4,71.0,29.98,North,0,0.0,6.4,55,0.00,,,0.02,WUHU216HW,2013-08-29 22:08:00,
2013-08-29 17:13:00,89.4,71.0,29.98,WNW,293,0.0,0.0,55,0.00,,,0.02,WUHU216HW,2013-08-29 22:13:00,
2013-08-29 17:18:00,89.4,71.6,29.98,WNW,293,0.0,0.0,56,0.00,,,0.02,WUHU216HW,2013-08-29 22:18:00,
2013-08-29 17:23:00,89.4,72.1,29.98,NW,315,0.0,0.0,57,0.00,,,0.02,WUHU216HW,2013-08-29 22:23:00,
2013-08-29 17:28:00,89.7,71.9,29.98,North,0,3.1,3.1,56,0.00,,,0.02,WUHU216HW,2013-08-29 22:28:00,
2013-08-29 17:33:00,89.4,71.6,29.98,NNW,338,0.0,3.1,56,0.00,,,0.02,WUHU216HW,2013-08-29 22:33:00,
2013-08-29 17:38:00,89.4,71.6,29.98,NW,315,0.0,3.1,56,0.00,,,0.02,WUHU216HW,2013-08-29 22:38:00,
2013-08-29 17:43:00,89.4,71.6,29.98,NW,315,1.8,9.1,56,0.00,,,0.02,WUHU216HW,2013-08-29 22:43:00,
2013-08-29 17:48:00,89.7,72.4,29.98,WNW,293,0.0,9.1,57,0.00,,,0.02,WUHU216HW,2013-08-29 22:48:00,
2013-08-29 17:53:00,90.3,72.4,29.98,NNW,338,0.0,1.8,56,0.00,,,0.02,WUHU216HW,2013-08-29 22:53:00,
2013-08-29 17:58:00,90.5,72.5,29.98,NNW,338,0.0,0.0,56,0.00,,,0.02,WUHU216HW,2013-08-29 22:58:00,
2013-08-29 18:03:00,90.5,72.0,29.98,NW,315,0.0,2.9,55,0.00,,,0.02,WUHU216HW,2013-08-29 23:03:00,
2013-08-29 18:08:00,90.6,72.2,29.98,North,0,0.0,2.9,55,0.00,,,0.02,WUHU216HW,2013-08-29 23:08:00,
2013-08-29 18:13:00,90.5,72.5,29.98,NW,315,0.0,0.0,56,0.00,,,0.02,WUHU216HW,2013-08-29 23:13:00,
2013-08-29 18:18:00,90.6,72.7,29.98,NNW,338,0.0,0.0,56,0.00,,,0.02,WUHU216HW,2013-08-29 23:18:00,
2013-08-29 18:23:00,90.1,72.2,29.98,NNW,338,0.0,5.9,56,0.00,,,0.02,WUHU216HW,2013-08-29 23:23:00,
2013-08-29 18:28:00,88.3,71.7,29.98,NNW,338,0.0,5.9,58,0.00,,,0.02,WUHU216HW,2013-08-29 23:28:00,
2013-08-29 18:33:00,88.5,71.8,29.98,North,0,0.0,0.0,58,0.00,,,0.02,WUHU216HW,2013-08-29 23:33:00,
2013-08-29 18:38:00,89.2,71.9,29.98,NNW,338,0.0,0.0,57,0.00,,,0.02,WUHU216HW,2013-08-29 23:38:00,
2013-08-29 18:43:00,89.4,71.6,29.98,North,0,0.0,3.5,56,0.00,,,0.02,WUHU216HW,2013-08-29 23:43:00,
2013-08-29 18:48:00,89.2,71.9,29.98,North,0,3.1,3.5,57,0.00,,,0.02,WUHU216HW,2013-08-29 23:48:00,
2013-08-29 18:53:00,88.7,72.5,29.98,North,0,0.0,3.1,59,0.00,,,0.02,WUHU216HW,2013-08-29 23:53:00,
2013-08-29 18:58:00,88.3,72.2,29.98,NNE,23,0.0,2.9,59,0.00,,,0.02,WUHU216HW,2013-08-29 23:58:00,
2013-08-29 19:03:00,87.9,72.4,29.98,North,0,9.1,9.1,60,0.00,,,0.02,WUHU216HW,2013-08-30 00:03:00,
2013-08-29 19:08:00,87.6,72.1,29.98,North,0,0.0,9.1,60,0.00,,,0.02,WUHU216HW,2013-08-30 00:08:00,
2013-08-29 19:13:00,86.9,72.3,29.99,North,0,0.0,4.0,62,0.00,,,0.02,WUHU216HW,2013-08-30 00:13:00,
2013-08-29 19:18:00,86.5,71.5,29.99,NNE,23,9.4,9.4,61,0.00,,,0.02,WUHU216HW,2013-08-30 00:18:00,
2013-08-29 19:23:00,85.8,70.3,29.99,North,0,5.9,9.4,60,0.00,,,0.02,WUHU216HW,2013-08-30 00:23:00,
2013-08-29 19:28:00,85.1,69.7,30.00,North,0,9.4,9.4,60,0.00,,,0.02,WUHU216HW,2013-08-30 00:28:00,
2013-08-29 19:33:00,84.7,69.3,30.00,NNE,23,4.8,9.4,60,0.00,,,0.02,WUHU216HW,2013-08-30 00:33:00,
2013-08-29 19:38:00,84.2,69.3,30.00,North,0,9.1,9.4,61,0.00,,,0.02,WUHU216HW,2013-08-30 00:38:00,
2013-08-29 19:43:00,83.4,68.1,30.00,North,0,11.5,11.5,60,0.00,,,0.02,WUHU216HW,2013-08-30 00:43:00,
2013-08-29 19:48:00,82.7,67.9,30.00,NNE,23,0.0,11.5,61,0.00,,,0.02,WUHU216HW,2013-08-30 00:48:00,
2013-08-29 19:53:00,82.2,67.3,30.00,NNE,23,0.0,11.5,61,0.00,,,0.02,WUHU216HW,2013-08-30 00:53:00,
2013-08-29 19:58:00,81.1,67.3,30.01,NNE,23,0.0,1.3,63,0.00,,,0.02,WUHU216HW,2013-08-30 00:58:00,
2013-08-29 20:03:00,80.7,67.4,30.01,North,0,0.0,0.0,64,0.00,,,0.02,WUHU216HW,2013-08-30 01:03:00,
2013-08-29 20:08:00,79.8,67.4,30.01,North,0,0.0,0.7,66,0.00,,,0.02,WUHU216HW,2013-08-30 01:08:00,
2013-08-29 20:13:00,78.9,67.0,30.01,NNE,23,0.5,0.7,67,0.00,,,0.02,WUHU216HW,2013-08-30 01:13:00,
2013-08-29 20:18:00,78.4,66.9,30.01,North,0,0.0,0.5,68,0.00,,,0.02,WUHU216HW,2013-08-30 01:18:00,
2013-08-29 20:23:00,77.9,67.0,30.01,North,0,0.0,0.5,69,0.00,,,0.02,WUHU216HW,2013-08-30 01:23:00,
2013-08-29 20:28:00,77.1,66.2,30.01,North,0,0.0,0.0,69,0.00,,,0.02,WUHU216HW,2013-08-30 01:28:00,
2013-08-29 20:33:00,76.8,66.3,30.01,North,0,0.0,0.0,70,0.00,,,0.02,WUHU216HW,2013-08-30 01:33:00,
2013-08-29 20:38:00,76.6,66.2,30.02,NNE,23,0.0,0.0,70,0.00,,,0.02,WUHU216HW,2013-08-30 01:38:00,
2013-08-29 20:43:00,76.2,66.2,30.02,North,0,0.0,0.0,71,0.00,,,0.02,WUHU216HW,2013-08-30 01:43:00,
2013-08-29 20:48:00,75.9,66.2,30.02,North,0,0.0,0.0,72,0.00,,,0.02,WUHU216HW,2013-08-30 01:48:00,
2013-08-29 20:53:00,75.7,66.0,30.01,North,0,0.0,0.0,72,0.00,,,0.02,WUHU216HW,2013-08-30 01:53:00,
2013-08-29 20:58:00,75.3,66.1,30.03,North,0,0.0,0.0,73,0.00,,,0.02,WUHU216HW,2013-08-30 01:58:00,
2013-08-29 21:03:00,75.3,66.1,30.03,North,0,0.0,0.0,73,0.00,,,0.02,WUHU216HW,2013-08-30 02:03:00,
2013-08-29 21:08:00,75.0,66.1,30.02,North,0,0.0,0.0,74,0.00,,,0.02,WUHU216HW,2013-08-30 02:08:00,
2013-08-29 21:13:00,74.4,66.0,30.03,North,0,0.0,0.0,75,0.00,,,0.02,WUHU216HW,2013-08-30 02:13:00,
2013-08-29 21:18:00,74.4,66.4,30.03,North,0,0.0,0.0,76,0.00,,,0.02,WUHU216HW,2013-08-30 02:18:00,
2013-08-29 21:23:00,74.3,66.2,30.03,North,0,0.0,0.0,76,0.00,,,0.02,WUHU216HW,2013-08-30 02:23:00,
2013-08-29 21:28:00,74.1,66.4,30.03,NNE,23,0.0,0.0,77,0.00,,,0.02,WUHU216HW,2013-08-30 02:28:00,
2013-08-29 21:33:00,73.9,66.3,30.03,NNE,23,0.0,0.0,77,0.00,,,0.02,WUHU216HW,2013-08-30 02:33:00,
2013-08-29 21:38:00,73.9,66.6,30.03,NNE,23,0.0,0.0,78,0.00,,,0.02,WUHU216HW,2013-08-30 02:38:00,
2013-08-29 21:43:00,73.9,66.6,30.03,North,0,0.0,0.0,78,0.00,,,0.02,WUHU216HW,2013-08-30 02:43:00,
2013-08-29 21:48:00,73.7,66.5,30.03,North,0,0.0,0.0,78,0.00,,,0.02,WUHU216HW,2013-08-30 02:48:00,
2013-08-29 21:53:00,73.5,66.3,30.03,NNE,23,0.0,0.0,78,0.00,,,0.02,WUHU216HW,2013-08-30 02:53:00,
2013-08-29 21:58:00,73.4,66.5,30.03,NNE,23,0.0,0.0,79,0.00,,,0.02,WUHU216HW,2013-08-30 02:58:00,
2013-08-29 22:03:00,73.2,66.3,30.03,NNE,23,0.0,0.0,79,0.00,,,0.02,WUHU216HW,2013-08-30 03:03:00,
2013-08-29 22:08:00,73.2,66.3,30.03,NNE,23,0.0,0.0,79,0.00,,,0.02,WUHU216HW,2013-08-30 03:08:00,
2013-08-29 22:13:00,73.2,66.3,30.03,North,0,0.0,0.0,79,0.00,,,0.02,WUHU216HW,2013-08-30 03:13:00,
2013-08-29 22:18:00,73.2,66.3,30.04,NNE,23,0.0,4.0,79,0.00,,,0.02,WUHU216HW,2013-08-30 03:18:00,
2013-08-29 22:23:00,73.2,66.3,30.04,North,0,0.0,4.0,79,0.00,,,0.02,WUHU216HW,2013-08-30 03:23:00,
2013-08-29 22:28:00,73.2,66.3,30.04,NNE,23,0.0,0.0,79,0.00,,,0.02,WUHU216HW,2013-08-30 03:28:00,
2013-08-29 22:33:00,72.8,66.0,30.05,NNE,23,0.0,0.0,79,0.00,,,0.02,WUHU216HW,2013-08-30 03:33:00,
2013-08-29 22:38:00,72.6,65.8,30.04,NNE,23,0.0,0.0,79,0.00,,,0.02,WUHU216HW,2013-08-30 03:38:00,
2013-08-29 22:43:00,72.3,65.4,30.04,NNE,23,0.0,0.0,79,0.00,,,0.02,WUHU216HW,2013-08-30 03:43:00,
2013-08-29 22:48:00,72.1,65.6,30.04,NNE,23,0.0,0.0,80,0.00,,,0.02,WUHU216HW,2013-08-30 03:48:00,
2013-08-29 22:53:00,71.9,65.4,30.05,NNE,23,0.0,0.0,80,0.00,,,0.02,WUHU216HW,2013-08-30 03:53:00,
2013-08-29 22:58:00,71.7,65.6,30.05,NNE,23,0.0,0.0,81,0.00,,,0.02,WUHU216HW,2013-08-30 03:58:00,
2013-08-29 23:01:00,71.4,65.2,30.05,North,0,0.0,0.0,81,0.00,,,0.02,WUHU216HW,2013-08-30 04:01:00,
2013-08-29 23:04:00,71.4,65.2,30.05,NNE,23,0.0,0.0,81,0.00,,,0.02,WUHU216HW,2013-08-30 04:04:00,
2013-08-29 23:09:00,71.2,65.1,30.04,NNE,23,0.0,0.0,81,0.00,,,0.02,WUHU216HW,2013-08-30 04:09:00,
2013-08-29 23:14:00,71.2,65.4,30.04,NNE,23,0.0,0.0,82,0.00,,,0.02,WUHU216HW,2013-08-30 04:14:00,
2013-08-29 23:19:00,70.8,65.0,30.04,NNE,23,0.0,0.0,82,0.00,,,0.02,WUHU216HW,2013-08-30 04:19:00,
2013-08-29 23:24:00,70.7,64.9,30.04,NNE,23,0.0,0.0,82,0.00,,,0.02,WUHU216HW,2013-08-30 04:24:00,
2013-08-29 23:29:00,70.7,65.2,30.04,NNE,23,0.0,0.0,83,0.00,,,0.02,WUHU216HW,2013-08-30 04:29:00,
2013-08-29 23:34:00,70.5,65.0,30.05,NNE,23,0.0,0.0,83,0.00,,,0.02,WUHU216HW,2013-08-30 04:34:00,
2013-08-29 23:39:00,70.5,65.0,30.04,NNE,23,0.0,0.0,83,0.00,,,0.02,WUHU216HW,2013-08-30 04:39:00,
2013-08-29 23:44:00,70.5,65.0,30.05,NNE,23,0.0,0.0,83,0.00,,,0.02,WUHU216HW,2013-08-30 04:44:00,
2013-08-29 23:49:00,70.5,65.0,30.05,NNE,23,0.0,0.0,83,0.00,,,0.02,WUHU216HW,2013-08-30 04:49:00,
2013-08-29 23:54:00,70.5,65.0,30.05,NNE,23,0.0,0.0,83,0.00,,,0.02,WUHU216HW,2013-08-30 04:54:00,
2013-08-29 23:59:00,70.5,65.0,30.05,NNE,23,0.0,0.0,83,0.00,,,0.02,WUHU216HW,2013-08-30 04:59:00,